Date String (YYYY-MM-DD hh:mm:ss) UTC,Instrument flags,Ambient pressure (hPa),Sample flow (lpm),Bypass flow (lpm),Sample temperature (°C),Ambient temperature (°C),ASC tube jacket temperature (°C),LED temperature (°C),Box temperature (°C),Sample RH (%),Span deviation,Mass concentration (μg/m³),Mass concentration (μg/m³),Mass concentration (μg/m³)
DateTimeUTC,F1_M11,P_M11,Q1_M11,Q2_M11,T1_M11,T2_M11,T3_M11,T4_M11,T5_M11,U1_M11,ZSPAN_M11,X0_M11,X2_M11,X1_M11
2022-03-25 14:00:00,,0832.1,5.00,0.00,25.8,24.7,00.0,34.9,27.6,13.9,0000.0,0010.60,0003.38,0001.48
2022-03-25 14:01:00,,0832.1,4.99,0.00,25.8,24.7,00.0,34.9,27.5,13.9,0000.0,0011.42,0003.41,0001.48
2022-03-25 14:02:00,,0832.1,5.00,0.00,25.8,24.6,00.0,34.9,27.5,14.0,0000.0,0012.08,0003.38,0001.48
2022-03-25 14:03:00,,0832.1,4.99,0.00,25.7,24.4,00.0,34.9,27.4,13.8,0000.0,0012.24,0003.35,0001.47
2022-03-25 14:04:00,,0832.1,5.00,0.00,25.7,24.4,00.0,34.8,27.4,13.8,0000.0,0012.99,0003.31,0001.47
2022-03-25 14:05:00,,0832.1,5.00,0.00,25.7,24.5,00.0,34.8,27.4,13.6,0000.0,0013.04,0003.28,0001.47
2022-03-25 14:06:00,,0832.1,5.00,0.00,25.6,24.5,00.0,34.8,27.3,13.8,0000.0,0013.05,0003.31,0001.47
2022-03-25 14:07:00,,0832.1,5.00,0.00,25.6,24.5,00.0,34.8,27.3,13.6,0000.0,0012.50,0003.31,0001.47
2022-03-25 14:08:00,,0832.1,5.00,0.00,25.6,24.5,00.0,34.8,27.3,13.8,0000.0,0012.27,0003.29,0001.47
2022-03-25 14:09:00,,0832.1,5.00,0.00,25.6,24.5,00.0,34.7,27.2,13.9,0000.0,0013.10,0003.28,0001.47
2022-03-25 14:10:00,,0832.2,5.00,0.00,25.5,24.5,00.0,34.7,27.2,13.8,0000.0,0013.89,0003.26,0001.45
2022-03-25 14:11:00,,0832.1,5.00,0.00,25.5,24.5,00.0,34.7,27.2,13.9,0000.0,0014.19,0003.26,0001.43
2022-03-25 14:12:00,,0832.1,5.01,0.00,25.5,24.4,00.0,34.7,27.2,14.0,0000.0,0013.48,0003.23,0001.41
2022-03-25 14:13:00,,0832.1,4.98,0.00,25.5,24.4,00.0,34.6,27.2,14.1,0000.0,0013.24,0003.27,0001.41
2022-03-25 14:14:00,,0832.1,5.01,0.00,25.4,24.3,00.0,34.6,27.1,14.2,0000.0,0013.02,0003.29,0001.42
2022-03-25 14:15:00,,0832.1,5.00,0.00,25.4,24.2,00.0,34.6,27.1,14.3,0000.0,0012.51,0003.32,0001.42
2022-03-25 14:16:00,,0832.1,5.00,0.00,25.4,24.1,00.0,34.6,27.1,14.2,0000.0,0011.86,0003.34,0001.43
2022-03-25 14:17:00,,0832.1,5.00,0.00,25.3,24.1,00.0,34.5,27.0,14.1,0000.0,0011.45,0003.33,0001.43
2022-03-25 14:18:00,,0832.1,5.00,0.00,25.3,24.1,00.0,34.5,27.0,14.2,0000.0,0011.76,0003.39,0001.44
2022-03-25 14:19:00,,0832.1,5.00,0.00,25.3,24.1,00.0,34.5,27.0,14.3,0000.0,0012.26,0003.38,0001.43
2022-03-25 14:20:00,,0832.1,5.00,0.00,25.3,24.1,00.0,34.5,27.0,14.2,0000.0,0011.94,0003.41,0001.43
2022-03-25 14:21:00,,0832.1,5.00,0.00,25.3,24.2,00.0,34.4,26.9,14.1,0000.0,0011.26,0003.48,0001.46
2022-03-25 14:22:00,,0832.0,5.00,0.00,25.2,24.2,00.0,34.4,26.9,14.2,0000.0,0011.16,0003.51,0001.48
2022-03-25 14:23:00,,0832.0,4.98,0.00,25.2,24.2,00.0,34.4,27.0,14.3,0000.0,0011.05,0003.51,0001.49
2022-03-25 14:24:00,,0832.0,5.00,0.00,25.2,24.2,00.0,34.4,26.9,14.4,0000.0,0010.66,0003.47,0001.49
2022-03-25 14:25:00,,0832.1,5.00,0.00,25.2,24.2,00.0,34.4,26.9,14.5,0000.0,0011.03,0003.46,0001.49
2022-03-25 14:26:00,,0832.1,5.00,0.00,25.2,24.1,00.0,34.4,26.9,14.5,0000.0,0011.75,0003.47,0001.48
2022-03-25 14:27:00,,0832.1,5.01,0.00,25.2,24.0,00.0,34.3,26.9,14.5,0000.0,0012.72,0003.49,0001.49
2022-03-25 14:28:00,,0832.1,5.00,0.00,25.1,24.0,00.0,34.3,26.8,14.1,0000.0,0012.77,0003.43,0001.48
2022-03-25 14:29:00,,0832.1,5.01,0.00,25.1,24.1,00.0,34.3,26.8,14.2,0000.0,0013.08,0003.34,0001.48
2022-03-25 14:30:00,,0832.0,5.00,0.00,25.1,24.1,00.0,34.3,26.8,14.3,0000.0,0012.69,0003.37,0001.49
2022-03-25 14:31:00,,0832.0,4.99,0.00,25.1,24.1,00.0,34.3,26.9,14.5,0000.0,0012.29,0003.36,0001.49
2022-03-25 14:32:00,,0832.0,5.00,0.00,25.1,24.1,00.0,34.2,26.8,14.4,0000.0,0012.00,0003.31,0001.48
2022-03-25 14:33:00,,0832.0,5.00,0.00,25.1,24.1,00.0,34.2,26.8,14.1,0000.0,0011.62,0003.31,0001.47
2022-03-25 14:34:00,,0832.0,5.00,0.00,25.1,24.1,00.0,34.2,26.8,14.0,0000.0,0012.42,0003.32,0001.46
2022-03-25 14:35:00,,0832.0,5.00,0.00,25.1,24.0,00.0,34.2,26.8,14.1,0000.0,0012.82,0003.33,0001.46
2022-03-25 14:36:00,,0831.9,5.00,0.00,25.0,23.9,00.0,34.2,26.8,14.2,0000.0,0013.91,0003.35,0001.45
2022-03-25 14:37:00,,0831.9,5.00,0.00,25.0,23.9,00.0,34.2,26.7,14.4,0000.0,0013.94,0003.35,0001.46
2022-03-25 14:38:00,,0832.0,4.99,0.00,25.0,23.9,00.0,34.1,26.7,14.4,0000.0,0013.34,0003.35,0001.45
2022-03-25 14:39:00,,0832.0,5.00,0.00,25.0,23.8,00.0,34.1,26.7,14.4,0000.0,0013.20,0003.42,0001.46
2022-03-25 14:40:00,,0832.0,5.00,0.00,25.0,23.8,00.0,34.1,26.7,14.5,0000.0,0012.58,0003.47,0001.48
2022-03-25 14:41:00,,0832.0,5.00,0.00,24.9,23.8,00.0,34.1,26.7,14.5,0000.0,0012.81,0003.48,0001.48
2022-03-25 14:42:00,,0832.0,4.99,0.00,24.9,23.9,00.0,34.1,26.7,14.2,0000.0,0013.73,0003.52,0001.49
2022-03-25 14:43:00,,0832.0,5.00,0.00,24.9,23.9,00.0,34.1,26.7,14.1,0000.0,0014.08,0003.54,0001.47
2022-03-25 14:44:00,,0832.0,5.00,0.00,24.9,24.0,00.0,34.1,26.7,14.2,0000.0,0014.57,0003.56,0001.48
2022-03-25 14:45:00,,0832.0,5.00,0.00,24.9,24.0,00.0,34.0,26.7,14.2,0000.0,0013.82,0003.54,0001.49
2022-03-25 14:46:00,,0832.0,4.98,0.00,24.9,24.0,00.0,34.0,26.7,14.3,0000.0,0013.22,0003.53,0001.49
2022-03-25 14:47:00,,0832.0,5.00,0.00,24.9,24.0,00.0,34.0,26.6,14.2,0000.0,0012.55,0003.51,0001.49
2022-03-25 14:48:00,,0832.0,5.00,0.00,24.9,24.0,00.0,34.0,26.6,14.1,0000.0,0012.19,0003.50,0001.48
2022-03-25 14:49:00,,0832.0,5.01,0.00,24.9,23.9,00.0,34.0,26.6,14.1,0000.0,0012.48,0003.52,0001.48
2022-03-25 14:50:00,,0832.0,4.98,0.00,24.8,23.9,00.0,34.0,26.6,14.2,0000.0,0012.64,0003.51,0001.47
2022-03-25 14:51:00,,0832.0,5.01,0.00,24.8,23.9,00.0,33.9,26.6,14.5,0000.0,0012.73,0003.49,0001.46
2022-03-25 14:52:00,,0832.0,5.00,0.00,24.8,23.9,00.0,33.9,26.5,14.2,0000.0,0012.53,0003.45,0001.45
2022-03-25 14:53:00,,0832.0,5.00,0.00,24.8,23.9,00.0,33.9,26.5,14.2,0000.0,0012.37,0003.44,0001.45
2022-03-25 14:54:00,,0832.0,5.01,0.00,24.7,23.9,00.0,33.9,26.5,14.3,0000.0,0012.38,0003.46,0001.48
2022-03-25 14:55:00,,0832.0,5.00,0.00,24.7,23.9,00.0,33.9,26.5,14.5,0000.0,0011.77,0003.47,0001.50
2022-03-25 14:56:00,,0832.0,4.99,0.00,24.7,23.8,00.0,33.9,26.5,14.5,0000.0,0011.90,0003.50,0001.52
2022-03-25 14:57:00,,0832.0,5.01,0.00,24.7,23.8,00.0,33.9,26.5,14.4,0000.0,0012.24,0003.51,0001.54
2022-03-25 14:58:00,,0832.0,5.00,0.00,24.7,23.9,00.0,33.8,26.5,14.4,0000.0,0011.99,0003.51,0001.54
2022-03-25 14:59:00,,0831.9,5.01,0.00,24.7,23.8,00.0,33.8,26.4,14.5,0000.0,0011.84,0003.52,0001.54
